This demonstration page uses our WeatherBlox Daily Observations layout. Learn more.

38.88101, -77.10428

Hourly Observations for January 27, 2017

Temp ( °F °C ) Dew Point ( °F °C ) Humidity (%) Winds ( mph kmh ) Pressure ( in mb ) Visibility ( mi km ) Precip ( " mm )
12:52 am 00:52 Partly Cloudy 43 6.1 26 -3.3 51 51 W 9 15 29.81 1010 10 16.0934 0 0
1:52 am 01:52 Cloudy 43 6.1 26 -3.3 51 51 VRB 5 7 29.82 1010 10 16.0934 0 0
2:52 am 02:52 Mostly Cloudy 44 6.7 26 -3.3 49 49 WNW 10 17 29.81 1010 10 16.0934 0 0
3:52 am 03:52 Cloudy 44 6.7 26 -3.3 49 49 WNW 13 20 29.81 1010 10 16.0934 0 0
4:52 am 04:52 Cloudy 43 6.1 26 -3.3 51 51 NW 10 17 29.81 1010 10 16.0934 0 0
5:52 am 05:52 Mostly Cloudy 42 5.6 24 -4.4 49 49 WNW 15 24 29.83 1010 10 16.0934 0 0
6:52 am 06:52 Mostly Cloudy 41 5 23 -5 49 49 NW 13 20 29.84 1011 10 16.0934 0 0
7:52 am 07:52 Mostly Cloudy 40 4.4 22 -5.6 49 49 NW 15 24 29.85 1011 10 16.0934 0 0
8:52 am 08:52 Mostly Sunny 41 5 19 -7.2 41 41 WNW 15 24 29.87 1011 10 16.0934 0 0
9:52 am 09:52 Partly Cloudy 43 6.1 16 -8.9 34 34 W 21 33 29.87 1012 10 16.0934 0 0
10:52 am 10:52 Mostly Cloudy 44 6.7 15 -9.4 31 31 W 21 33 29.87 1011 10 16.0934 0 0
11:52 am 11:52 Mostly Cloudy 43 6.1 16 -8.9 34 34 W 16 26 29.84 1010 10 16.0934 0 0
12:52 pm 12:52 Mostly Cloudy 43 6.1 16 -8.9 34 34 W 20 31 29.8 1009 10 16.0934 0 0
1:52 pm 13:52 Mostly Cloudy 42 5.6 16 -8.9 35 35 W 15 24 29.79 1009 10 16.0934 0 0
2:52 pm 14:52 Cloudy 42 5.6 17 -8.3 36 36 WSW 20 31 29.78 1009 10 16.0934 0 0
3:52 pm 15:52 Cloudy 42 5.6 14 -10 32 32 W 21 33 29.79 1009 10 16.0934 0 0
4:52 pm 16:52 Cloudy 41 5 17 -8.3 38 38 WNW 15 24 29.81 1010 10 16.0934 0 0
5:52 pm 17:52 Mostly Cloudy 40 4.4 16 -8.9 38 38 WNW 13 20 29.82 1010 10 16.0934 0 0
6:52 pm 18:52 Mostly Cloudy 39 3.9 17 -8.3 41 41 W 9 15 29.82 1010 10 16.0934 0 0
7:52 pm 19:52 Cloudy 40 4.4 18 -7.8 41 41 WNW 12 19 29.83 1010 10 16.0934 0 0
8:52 pm 20:52 Partly Cloudy 38 3.3 18 -7.8 44 44 W 12 19 29.83 1010 10 16.0934 0 0
9:52 pm 21:52 Cloudy 39 3.9 18 -7.8 43 43 WSW 12 19 29.83 1010 10 16.0934 0 0
10:52 pm 22:52 Cloudy 39 3.9 17 -8.3 41 41 W 18 30 29.84 1011 10 16.0934 0 0
11:52 pm 23:52 Cloudy 38 3.3 15 -9.4 39 39 WNW 18 30 29.84 1011 10 16.0934 0 0

Powered by AerisWeather